Location: Newark
(42.8481°N, 0.4872°E)
Time: 11:22:23
(UTC+00:00)

Explorer 7 - Pass Details

Date: 04 November 2020
Orbit: 484 x 678 km, 50.3° (Epoch: 03 December)

Event Time Altitude Azimuth Distance (km) Brightness Sun altitude
Rises 17:43:08 0° 293° (WNW) 2,587 11.3 -10.9°
Reaches altitude 10° 17:45:31 10° 280° (W) 1,723 10.6 -11.3°
Maximum altitude 17:48:48 26° 222° (SW) 1,047 8.9 -11.9°
Drops below altitude 10° 17:52:13 10° 165° (SSE) 1,796 9.4 -12.5°
Sets 17:54:45 0° 153° (SSE) 2,722 10.2 -12.9°
